CDT,Max TemperatureF,Mean TemperatureF,Min TemperatureF,Max Dew PointF,MeanDew PointF,Min DewpointF,Max Humidity, Mean Humidity, Min Humidity, Max Sea Level PressureIn, Mean Sea Level PressureIn, Min Sea Level PressureIn, Max VisibilityMiles, Mean VisibilityMiles, Min VisibilityMiles, Max Wind SpeedMPH, Mean Wind SpeedMPH, Max Gust SpeedMPH,PrecipitationIn, CloudCover, Events, WindDirDegrees
2013-5-1,97,82,67,63,58,49,78,49,20,29.96,29.76,29.68,10,10,7,32,11,39,0.01,0,Rain-Thunderstorm,148
2013-5-2,67,55,43,58,37,30,82,63,43,30.47,30.31,29.96,10,10,7,31,21,38,T,6,,356
2013-5-3,71,53,35,29,21,13,70,41,11,30.46,30.28,30.06,10,10,10,20,8,24,0.00,0,,289
2013-5-4,82,61,40,28,21,18,40,25,9,30.04,29.97,29.88,10,10,10,12,7,16,0.00,0,,354
2013-5-5,79,64,48,37,32,26,50,35,19,30.18,30.07,30.01,10,10,10,14,7,18,0.00,0,,62
2013-5-6,69,60,51,55,45,36,80,62,43,30.11,30.05,29.99,10,10,7,17,7,21,0.09,2,Rain,70
2013-5-7,87,67,47,50,46,44,86,55,23,30.03,29.95,29.83,10,10,10,21,10,30,T,0,,147
2013-5-8,85,73,60,63,59,48,78,61,44,29.95,29.87,29.78,10,10,10,21,11,26,0.00,3,,162
2013-5-9,83,73,63,67,63,59,93,72,51,29.95,29.86,29.76,10,10,2,28,10,35,0.23,4,Rain-Thunderstorm,124
2013-5-10,82,71,59,60,58,55,93,68,42,30.12,29.98,29.86,10,8,2,36,8,44,0.54,3,Rain-Thunderstorm,21
2013-5-11,80,67,54,57,51,43,93,61,28,30.19,30.14,30.06,10,10,7,22,8,25,0.00,1,,38
2013-5-12,80,67,53,53,48,41,93,60,27,30.27,30.18,30.12,10,10,10,15,5,20,0.00,0,,102
2013-5-13,88,69,50,50,42,33,83,49,15,30.23,30.17,30.07,10,10,10,16,7,24,0.00,0,,190
2013-5-14,87,75,62,61,55,48,87,61,34,30.17,30.05,29.91,10,10,4,28,12,35,0.55,3,Rain-Thunderstorm,196
2013-5-15,92,77,62,65,59,48,93,58,23,30.10,29.88,29.67,10,10,2,28,11,37,0.00,3,Rain,180
2013-5-16,102,85,68,68,57,44,84,50,15,29.75,29.68,29.60,10,10,7,18,8,24,0.00,0,,191
2013-5-17,106,89,72,64,52,38,64,38,11,29.76,29.71,29.66,10,10,10,23,9,26,0.00,0,,188
2013-5-18,99,88,76,69,64,57,69,48,26,29.77,29.71,29.64,10,10,7,28,16,39,0.00,0,,182
2013-5-19,101,87,72,64,49,26,73,40,7,29.74,29.68,29.60,10,10,10,28,11,39,0.00,0,,219
2013-5-20,102,89,75,68,54,24,79,43,7,29.73,29.66,29.58,10,9,7,21,10,28,0.00,0,,209
2013-5-21,95,81,66,69,57,33,79,46,12,29.84,29.73,29.62,10,9,7,28,14,35,0.00,1,,167
2013-5-22,97,77,57,61,49,43,69,44,18,29.90,29.81,29.71,10,10,10,20,9,28,0.00,0,,170
2013-5-23,96,81,65,70,65,62,87,62,36,30.11,29.87,29.76,10,7,2,32,14,39,1.35,3,Rain,158
2013-5-24,81,74,66,64,62,58,93,76,58,30.16,30.04,29.92,10,8,1,28,11,33,0.44,3,Rain,82
2013-5-25,86,77,67,68,65,62,93,71,48,30.13,30.03,29.90,10,10,10,20,9,31,0.00,5,,128
2013-5-26,89,77,65,69,65,57,87,67,46,30.10,29.95,29.85,10,9,2,30,12,38,0.35,2,Rain,193
2013-5-27,87,80,73,69,67,66,84,68,51,29.96,29.83,29.73,10,10,10,24,16,32,0.00,4,,178
2013-5-28,83,78,72,69,66,64,84,70,55,29.84,29.74,29.62,10,10,9,26,15,36,0.01,4,Rain-Thunderstorm,163
2013-5-29,90,80,70,68,66,64,84,64,44,29.75,29.64,29.54,10,10,10,26,14,36,0.00,2,,171
2013-5-30,97,86,75,70,66,56,82,54,25,29.79,29.69,29.62,10,10,10,25,15,32,0.00,3,,185
2013-5-31,98,87,75,72,69,66,82,60,38,29.85,29.71,29.62,10,10,10,24,16,33,0.00,1,,187